Weather in Kenada

Russia / Khabarovsk Krai     50°08′11″N   139°34′17″E
temp.,
°C
wind,
m/s
gust,
m/s
humid.,
%
clouds,
%
prec.,
mm/h
press.,
hPa
HPBL,
m
27 february, sat
sat2701:00−23w229549 0.0 102929
04:00−24w229526 0.0 103036
07:00−24w22940 0.0 103136
10:00−17wsw33870 0.0 1030183
13:00−11wsw38727 0.0 1028648
16:00−11wsw3117241 0.0 1025667
19:00−15wsw2289100 0.0 102521
22:00−15sw2290100 0.0 102227
28 february, sun
sun2801:00−14ssw2288100 0.0 101844
04:00−12ssw3894100 0.6 1014376
07:00−13wsw2295100 0.2 101241
10:00−9w41583100 0.3 1011894
13:00−7w7157996 0.1 10111045
16:00−8w6137887 0.1 10111056
19:00−13w4139185 0.1 1014646
22:00−15wnw6138875 0.3 1016835
1 march, mon
mon101:00−20w23899 0.0 101869
04:00−23w22948 0.0 102127
07:00−24w229664 0.0 102226
10:00−20w358356 0.0 1024728
13:00−18w487185 0.0 10241118
16:00−19w597991 0.1 10241195
19:00−21wsw41295100 0.1 1026715
22:00−22w3119383 0.2 1027397
2 march, tue
tue201:00−25wsw239525 0.0 102748
04:00−27wsw229940 0.0 102821
07:00−28wsw229881 0.0 102919
10:00−24wsw258673 0.0 1029529
13:00−20w486228 0.0 10281158
16:00−19w486614 0.0 10271190
19:00−25w22886 0.0 102919
22:00−28w22943 0.0 103019
3 march, wed
wed301:00−29w22940 0.0 102921
04:00−29w22940 0.0 102821
07:00−29w22940 0.0 102824
10:00−21wsw23830 0.0 1026249
13:00−16wsw38680 0.0 1023681
16:00−15wsw49753 0.0 1021872
19:00−20wsw229214 0.0 101920
22:00−20sw239214 0.0 101821